FENGYUN 1C DEB

Satellite information

Favourite Embed

Satellite Type and Status

DEBRISIN ORBIT

Key statistics

Satellite FENGYUN 1C DEB at a glance.

Uptime

9715

Days in orbit

Revolutions

≈ 13.6

Per day

Orbit

SSO

Sun Synchronous Orbit

Inclination

98.5

Latest

Satellite identification and parameters

Extended collection of information and parameters for FENGYUN 1C DEB.

Object identification

Identified? True

Debris? True

Object name: FENGYUN 1C DEB

International designator: 1999-025AJD

Object number (NORAD): 30515

Object ID (CCSDS): 30515

Country: PEOPLES REPUBLIC OF CHINA (PRC)

Current information (Y/N): Y

RCS size: SMALL

Orbital parameters

Period: 105.589 minutes

Inclination: 98.5089 deg

SMA: 7400.108 km

Apoapsis: 1389.682 km

Periapsis: 654.264 km

RAAN: 221.9088 deg

Eccentricy: 0.04968962

Argument of periapsis: 77.6131 deg

Mean anomaly: 316.5851 deg

Mean motion: 13.63784252 rev/day

Mean motion (dot): 0.00002571 rev/day2

B* drag term: 0.0014137835 1/REarth

Two-line elements (TLE)

Creation date: Dec. 11, 2025, 7:14 p.m.

Reference frame: TEME

Reference center: EARTH

Epoch: Dec. 11, 2025, 2:47 p.m. UTC

TLE line 0: 0 FENGYUN 1C DEB

TLE line 1: 1 30515U 99025AJD 25345.61663918 .00002571 00000-0 14138-2 0 9992

TLE line 2: 2 30515 98.5089 221.9088 0496896 77.6131 316.5851 13.63784252933153

Live tracking on map

Real-time ground track for satellite FENGYUN 1C DEB.

In-orbit conjunctions

A list of the most updated potential collisions computed for object FENGYUN 1C DEB.

Target Orbit TCA Probability of collision Miss distance Type
CZ-6A DEB LEO 2025-09-16 15:59:43 0.000105017 205.0 (m) DEBRIS
FENGYUN 1C DEB SSO 2024-08-06 18:18:36 0.0001123603 202.0 (m) DEBRIS

Associated space launch

Chinese polar orbiting meteorological satellite

FENGYUN 1C DEB was lifted into orbit during the mission ‘Long March 4B | Feng Yun 1C’, on board a Long March 4B space rocket.

The launch took place on May 10, 1999, 1:33 a.m. from Launch Complex 7.

For more information about the launch, click the button.

Launch to space Long March 4B | Feng Yun 1C
Long March 4B | Feng Yun 1C

Agency: N/A

Status: Launch Successful

Launch date: May 10, 1999, 1:33 a.m. UTC

Rocket: Long March 4B

Launch pad: Launch Complex 7

Location: Taiyuan Satellite Launch Center, People's Republic of China

...

Latest news about this satellite

There are no fresh news available about this satellite. Check back as we update our databases every day.


Newsletter sign-up

Weekly statistics, charts and insights to help you stay on top of the space industry.